Tracking 26218 objects as of 27-Sep-2022
HD Live streaming from Space Station
objects crossing your sky now

STARLINK-4687

Track STARLINK-4687 now!
10-day predictions
STARLINK-4687 is classified as:


NORAD ID: 53784
Int'l Code: 2022-111M
Perigee: 356.4 km
Apogee: 357.7 km
Inclination: 53.2 °
Period: 91.5 minutes
Semi major axis: 6728 km
RCS: Unknown
Launch date: September 11, 2022
Source: United States (US)
Launch site: AIR FORCE EASTERN TEST RANGE (AFETR)
aabbcc
Your satellite tracking list
Your tracking list is empty




NASA's NSSDC Master Catalog

Two Line Element Set (TLE):
1 53784U 22111M   22270.25001157  .00063640  00000-0  45541-3 0  9999
2 53784  53.2176 186.9745 0001009 120.3673 322.7022 15.73149579  2488
Source of the keplerian elements: AFSPC